Change the Weather History Date:

Saturday, January 12, 2013

  Actual Average Record
Temperature  
Mean Temperature 25 °F 16 °F  
Max Temperature 39 °F 24 °F 48 °F (1987)
Min Temperature 10 °F 7 °F -33 °F (1912)
Degree Days  
Heating Degree Days 40 49  
Month to date heating degree days 535 588  
Since 1 July heating degree days 3406 3677  
Cooling Degree Days 0 0  
Month to date cooling degree days 0 0  
Year to date cooling degree days 0 0  
Moisture  
Dew Point 11 °F    
Average Humidity 81    
Maximum Humidity 100    
Minimum Humidity 61    
Precipitation  
Precipitation T in 0.03 in 0.56 in (1993)
Month to date precipitation 0.11 0.32  
Year to date precipitation 0.11 0.32  
Snow  
Snow 0.00 in 0.30 in 6.50 in (1993)
Month to date snowfall 0.1 3.8  
Since 1 July snowfall 10.7 17.8  
Snow Depth 1.00 in    
Sea Level Pressure  
Sea Level Pressure 29.91 in    
Wind  
Wind Speed 19 mph (West)    
Max Wind Speed 33 mph    
Max Gust Speed 40 mph    
Visibility 9 miles    
Events Snow    
T = Trace of Precipitation, MM = Missing Value Source: NWS Daily Summary

Daily Weather History Graph

Daily Weather History Graph

Search for Another Location

Airport or City:

Trip Planner

Search our weather history database for the weather conditions in past years. The results will help you decide how hot, cold, wet, or windy it might be!

Date:

Astronomy

Jan. 12, 2013 Rise Set
Actual Time 7:43 AM CST 5:00 PM CST
Civil Twilight 7:11 AM CST 5:32 PM CST
Nautical Twilight 6:36 AM CST 6:07 PM CST
Astronomical Twilight 6:02 AM CST 6:41 PM CST
Moon 8:00 AM CST (1/12) 6:33 PM CST (1/12)
Length of Visible Light 10h 20m
Length of Day
9h 17m
New Moon, 1% of the Moon is Illuminated
Jan 12
New Moon
Jan 18
First Quarter
Jan 26
Full
Feb 3
Last Quarter
Feb 10
New

Hourly Weather History & Observations

Time (CST) Temp. Windchill Dew Point Humidity Pressure Visibility Wind Dir Wind Speed Gust Speed Precip Events Conditions
12:09 AM 39.2 °F 32.5 °F 37.4 °F 93% 29.48 in 6.0 mi WSW 10.4 mph - N/A   Overcast
12:37 AM 37.4 °F 27.5 °F 35.6 °F 93% 29.51 in 4.0 mi WSW 18.4 mph 24.2 mph N/A   Overcast
12:53 AM 34.0 °F 21.8 °F 32.0 °F 92% 29.55 in 3.0 mi West 23.0 mph 38.0 mph N/A   Overcast
1:39 AM 32.0 °F 19.8 °F 28.4 °F 87% 29.56 in 10.0 mi West 20.7 mph 26.5 mph N/A   Overcast
1:53 AM 32.0 °F 19.2 °F 28.0 °F 85% 29.60 in 10.0 mi West 23.0 mph 31.1 mph N/A   Overcast
2:12 AM 30.2 °F 15.4 °F 26.6 °F 86% 29.61 in 10.0 mi WSW 28.8 mph 36.8 mph N/A   Overcast
2:53 AM 28.0 °F 14.3 °F 23.0 °F 81% 29.68 in 10.0 mi West 21.9 mph 33.4 mph N/A   Overcast
3:13 AM 26.6 °F 11.7 °F 21.2 °F 80% 29.67 in 10.0 mi West 24.2 mph 34.5 mph N/A   Overcast
3:53 AM 25.0 °F 9.2 °F 19.0 °F 78% 29.72 in 10.0 mi West 25.3 mph 34.5 mph N/A   Overcast
4:53 AM 21.9 °F 5.5 °F 16.0 °F 78% 29.78 in 8.0 mi West 24.2 mph 32.2 mph N/A   Overcast
5:53 AM 18.0 °F -1.1 °F 10.0 °F 71% 29.83 in 10.0 mi West 28.8 mph 36.8 mph 0.00 in   Mostly Cloudy
6:40 AM 17.6 °F -1.6 °F 8.6 °F 68% 29.85 in 10.0 mi West 28.8 mph 36.8 mph N/A   Scattered Clouds
6:49 AM 17.6 °F -1.6 °F 8.6 °F 68% 29.85 in 10.0 mi West 28.8 mph 35.7 mph N/A   Mostly Cloudy
6:53 AM 17.1 °F -2.0 °F 8.1 °F 68% 29.89 in 10.0 mi West 27.6 mph 38.0 mph N/A   Mostly Cloudy
7:53 AM 15.1 °F -3.3 °F 6.1 °F 68% 29.92 in 10.0 mi West 23.0 mph 33.4 mph 0.00 in   Mostly Cloudy
8:19 AM 15.8 °F -2.7 °F 6.8 °F 68% 29.90 in 10.0 mi West 24.2 mph 32.2 mph N/A   Scattered Clouds
8:53 AM 15.1 °F -0.6 °F 6.1 °F 68% 29.95 in 10.0 mi West 16.1 mph 26.5 mph N/A   Mostly Cloudy
9:53 AM 17.1 °F 2.0 °F 9.0 °F 71% 29.99 in 5.0 mi West 16.1 mph - 0.00 in Snow Light Snow
10:10 AM 17.6 °F 2.7 °F 10.4 °F 73% 29.96 in 1.8 mi WSW 16.1 mph - 0.00 in Snow Light Snow
10:21 AM 17.6 °F 2.2 °F 8.6 °F 68% 29.97 in 3.0 mi West 17.3 mph 25.3 mph 0.00 in Snow Light Snow
10:53 AM 17.1 °F 0.1 °F 7.0 °F 65% 30.01 in 10.0 mi West 20.7 mph - 0.00 in   Overcast
11:53 AM 18.0 °F 3.6 °F 8.1 °F 65% 29.99 in 7.0 mi West 15.0 mph - 0.00 in Snow Light Snow
12:53 PM 17.1 °F -1.4 °F 7.0 °F 65% 29.99 in 9.0 mi West 25.3 mph 29.9 mph 0.00 in   Overcast
1:53 PM 18.0 °F 2.2 °F 7.0 °F 62% 30.03 in 10.0 mi West 18.4 mph 23.0 mph N/A   Mostly Cloudy
2:53 PM 18.0 °F 1.3 °F 7.0 °F 62% 30.01 in 10.0 mi West 20.7 mph - N/A   Mostly Cloudy
3:53 PM 16.0 °F 0.1 °F 5.0 °F 62% 30.06 in 10.0 mi WNW 17.3 mph - N/A   Overcast
4:53 PM 15.1 °F 1.1 °F 5.0 °F 64% 30.06 in 10.0 mi WNW 12.7 mph - N/A   Overcast
5:38 PM 12.2 °F -3.1 °F 3.2 °F 67% 30.02 in 10.0 mi WNW 13.8 mph - N/A   Scattered Clouds
5:53 PM 12.9 °F -3.4 °F 3.0 °F 65% 30.09 in 10.0 mi West 16.1 mph - N/A   Scattered Clouds
6:07 PM 12.2 °F -4.3 °F 3.2 °F 67% 30.03 in 10.0 mi WNW 16.1 mph - N/A   Mostly Cloudy
6:20 PM 12.2 °F -4.8 °F 3.2 °F 67% 30.04 in 10.0 mi West 17.3 mph - N/A   Scattered Clouds
6:30 PM 12.2 °F -3.7 °F 3.2 °F 67% 30.04 in 10.0 mi WNW 15.0 mph - N/A   Mostly Cloudy
6:53 PM 12.9 °F -2.8 °F 3.0 °F 65% 30.09 in 10.0 mi West 15.0 mph - N/A   Overcast
7:29 PM 12.2 °F -3.7 °F 1.4 °F 62% 30.07 in 10.0 mi West 15.0 mph - N/A   Scattered Clouds
7:53 PM 12.9 °F -0.9 °F 1.9 °F 62% 30.13 in 10.0 mi West 11.5 mph - N/A   Clear
8:53 PM 12.2 °F -3.7 °F 3.2 °F 67% 30.04 in 10.0 mi WNW 15.0 mph - N/A   Scattered Clouds
9:06 PM 12.2 °F -3.7 °F 3.2 °F 67% 30.01 in 10.0 mi WNW 15.0 mph - N/A   Mostly Cloudy
9:28 PM 10.4 °F -6.0 °F 1.4 °F 67% 30.05 in 10.0 mi WNW 15.0 mph - N/A   Scattered Clouds
9:53 PM 12.0 °F -3.4 °F 5.0 °F 73% 30.10 in 6.0 mi NNW 13.8 mph - 0.00 in Snow Light Snow
10:53 PM 10.9 °F -5.4 °F 3.0 °F 70% 30.09 in 10.0 mi NW 15.0 mph - 0.00 in   Overcast
11:53 PM 10.0 °F -5.2 °F 1.0 °F 67% 30.10 in 10.0 mi NW 12.7 mph - N/A   Overcast